{"data":{"norad_id":67836,"epoch":"2026-09-19T05:52:09.712704Z","epoch_age_seconds":174943,"freshness":"STALE","line1":"1 67836U 26033R   26262.24455686  .00011975  00000+0  44388-3 0  9994","line2":"2 67836  43.0023 254.1439 0001956 283.7104  76.3530 15.27585854 34278","mean_motion":15.27585854,"eccentricity":0.0001956,"inclination_deg":43.0023,"raan_deg":254.1439,"arg_perigee_deg":283.7104,"mean_anomaly_deg":76.353,"bstar":0.00044388,"rev_number":3427,"period_min":94.266387465513,"perigee_km":481.68952254194,"apogee_km":484.37361168539,"semimajor_km":6861.1685671137,"source":"CELESTRAK","updated_at":"2026-09-20T09:00:43.670150Z"}}